Simultaneous Nadir Overpasses (SNOs) Predictions

Prediction of SNOs between METOP-B and TERRA Satellite Orbit:

Table of predicted SNOs for the next 14.0 days since TLE Epoch: 3/7/2015
Index Date (METOP-B) Time (METOP-B) Lat,Lon (METOP-B) SZA (METOP-B ) Date (TERRA) Time (TERRA) Lat,Lon (TERRA) SZA (TERRA ) Distance(km) Time Diff (sec)
1 03/08/2015 20:09:35 81.28, -75.68 88.45 03/08/2015 20:10:35 81.28, -75.56 88.49 2.02 60
2 03/08/2015 21:00:14 -81.29, 92.30 91.49 03/08/2015 21:00:01 -81.30, 92.43 91.48 2.28 13
3 03/11/2015 15:43:59 81.29, -8.94 87.42 03/11/2015 15:45:09 81.29, -9.12 87.42 2.98 70
4 03/11/2015 16:34:39 -81.29, 158.68 92.57 03/11/2015 16:34:36 -81.29, 158.56 92.59 2.28 3
5 03/14/2015 12:09:04 -81.29,-135.39 93.71 03/14/2015 12:09:19 -81.28,-135.20 93.68 3.23 15
6 03/14/2015 12:59:43 81.30, 32.64 86.37 03/14/2015 12:58:45 81.30, 32.68 86.35 0.76 58
7 03/17/2015 07:43:28 -81.29, -68.75 94.76 03/17/2015 07:44:12 -81.29, -68.84 94.75 1.50 44
8 03/17/2015 08:34:07 81.30, 99.23 85.31 03/17/2015 08:33:38 81.30, 99.07 85.28 2.78 29
9 03/20/2015 04:08:32 81.30, 165.36 84.19 03/20/2015 04:08:41 81.30, 165.19 84.17 3.02 9




NCC Satellite Simultaneous Nadir Overpasses (SNOs) Prediction Service
